Wind_Speed
35 39 43 41 38 41 27 38 33 27 32 28 27 23 19 19 8 8 12 13 18 20 25 28 32 30 25 20 19 14 10 7 4 3 4 4 8 11 12 11 9 8 8 8 1 10 12 6 8
41 38 40 45 42 43 34 35 35 31 35 30 25 25 21 18 10 8 9 9 14 15 20 27 27 25 27 28 24 23 23 22 21 19 18 14 11 7 6 5 5 9 12 15 16 14 7 6 7
43 42 39 42 45 41 40 27 41 39 35 35 24 24 22 18 16 14 9 5 10 12 15 21 24 23 24 23 27 27 27 25 26 27 25 26 28 29 30 27 25 22 19 17 14 10 7 6 9
48 46 41 41 45 40 42 27 34 42 35 37 29 25 21 19 20 11 7 4 8 7 10 14 19 18 21 20 21 23 28 24 25 26 24 25 25 25 25 23 21 17 14 11 10 8 12 13 17
49 48 44 43 43 42 43 40 20 30 38 37 32 28 23 19 18 15 15 11 5 5 6 10 15 15 18 19 20 21 23 26 25 23 22 20 20 21 20 19 17 15 12 9 10 13 15 13 15
52 53 50 47 44 43 43 46 32 33 33 38 34 30 25 21 21 18 16 13 8 5 5 7 10 12 13 13 16 17 19 20 21 20 20 20 17 14 14 14 12 11 10 8 9 11 16 14 16
59 56 53 52 49 46 44 46 46 37 29 32 38 35 28 26 21 19 15 18 13 10 6 8 8 10 10 12 13 14 16 17 18 15 13 15 16 14 13 14 13 12 11 8 8 10 14 15 14
64 61 56 58 57 53 50 47 48 44 35 27 33 36 35 26 26 24 26 18 18 15 9 9 10 8 11 11 12 8 12 13 13 14 17 17 14 11 10 10 11 12 13 15 16 15 20 21 18
71 65 62 64 61 58 54 50 48 56 50 40 36 43 38 33 26 26 21 23 21 18 15 13 10 11 12 13 12 10 12 11 11 11 12 12 13 13 10 9 10 9 10 12 17 21 21 25 28
72 71 68 71 64 64 56 54 52 54 52 48 40 44 37 35 31 31 29 28 28 24 23 17 16 14 13 14 14 11 9 9 9 9 10 8 8 9 8 6 6 14 17 20 19 23 25 25 26
78 73 77 75 71 68 63 59 55 55 55 58 58 50 38 40 33 33 34 34 31 30 29 22 20 18 18 18 18 14 12 11 11 9 9 9 9 11 10 9 8 13 17 18 20 23 25 26 30
83 80 83 78 75 74 68 65 59 60 58 59 58 59 51 42 36 36 37 35 31 32 34 27 24 22 23 21 22 20 16 14 15 16 13 12 13 15 15 14 16 17 20 22 25 28 30 30 32
82 88 84 85 79 77 73 70 67 60 65 59 59 59 56 52 45 36 36 36 37 37 34 31 28 26 25 26 25 23 22 19 20 20 19 18 19 21 21 22 21 22 23 25 28 32 32 33 34
91 86 91 90 83 82 80 77 70 68 69 66 67 65 59 57 52 43 36 37 37 33 31 32 31 27 28 29 29 26 26 26 24 25 24 23 22 25 26 26 25 25 27 30 33 35 38 37 39
93 91 93 90 91 83 84 82 72 77 71 70 72 68 65 62 54 51 42 39 33 31 31 26 25 27 29 32 29 28 30 30 28 28 30 26 27 31 32 31 29 30 32 34 37 40 43 44 44
97 92 92 92 97 90 90 80 84 81 76 71 73 71 70 66 65 55 54 46 38 39 38 36 39 31 29 30 34 33 30 32 33 31 30 30 34 38 36 36 35 37 37 39 41 39 38 41 43
100 92 90 99 100 99 93 87 90 87 78 75 74 75 71 68 64 59 59 56 47 45 44 43 43 42 35 33 32 28 29 31 34 31 33 36 39 40 40 40 42 42 43 43 44 45 47 48 50
101 98 97 96 103 103 98 93 93 93 86 79 77 76 72 70 71 67 60 58 54 55 50 51 48 46 43 42 40 40 36 34 35 37 40 40 41 42 42 46 46 46 46 47 50 49 47 50 54
107 102 99 95 104 105 103 100 96 96 88 82 78 75 75 76 77 73 60 65 65 59 57 55 50 50 49 46 44 44 41 40 43 41 41 43 44 43 48 49 49 48 48 49 50 51 51 52 54
109 104 96 97 101 107 110 105 100 97 90 86 83 78 78 78 79 77 73 67 64 64 60 58 57 53 49 48 48 47 45 44 46 48 49 48 45 47 51 52 52 53 52 51 52 53 55 57 58
104 101 95 97 108 111 114 109 104 99 93 89 87 81 77 80 83 83 73 69 68 64 61 61 60 59 54 53 52 52 51 51 54 53 51 51 52 52 53 52 54 55 53 54 53 55 57 58 61
100 98 96 105 111 112 115 108 107 100 94 86 86 84 80 83 85 82 78 70 68 66 67 63 62 60 56 58 58 59 62 60 58 55 55 57 54 56 56 54 57 57 57 58 57 59 59 62 63
96 101 99 107 112 118 114 110 104 105 96 87 86 86 86 86 88 85 83 77 73 71 71 69 68 66 66 64 62 63 63 63 61 58 60 60 63 62 61 60 61 60 60 60 63 62 62 61 58
99 101 104 110 113 120 108 112 110 107 95 92 89 89 91 92 88 88 88 86 82 79 77 79 77 74 68 65 65 65 65 67 66 65 63 60 60 62 65 66 66 64 65 63 63 65 61 60 60
101 100 104 110 113 117 111 116 105 105 102 95 92 91 93 93 93 89 88 90 89 88 87 84 79 77 75 69 64 63 67 67 65 66 63 62 59 61 64 62 64 62 61 63 65 63 62 63 64
97 98 104 108 108 109 121 115 102 105 105 100 97 95 95 95 95 93 91 89 87 88 87 88 82 77 72 69 64 67 67 65 65 62 61 63 61 60 62 59 61 63 63 64 65 65 62 64 63
98 104 101 108 110 120 121 111 109 110 106 104 101 99 99 98 96 93 91 88 87 85 84 83 79 75 72 69 67 66 65 65 67 65 63 65 64 67 65 63 64 66 68 65 65 66 66 66 65
102 101 106 112 118 122 127 114 108 112 111 105 104 101 103 102 99 94 93 92 87 86 84 84 80 74 71 73 71 69 69 67 69 69 64 62 66 68 66 68 68 67 64 62 65 68 68 67 69
99 105 111 115 122 125 114 110 104 116 116 107 103 107 105 103 100 96 94 92 91 89 88 87 85 82 81 79 78 78 77 74 71 67 62 62 64 64 64 64 66 64 61 66 69 68 69 69 71
102 106 111 120 122 124 122 110 104 116 119 110 108 108 107 106 103 100 99 97 94 91 91 88 87 85 85 86 84 82 82 77 72 70 67 67 65 63 63 64 61 66 70 69 68 70 71 73 75
Wind_Direction
232 236 238 231 233 238 247 248 239 257 258 248 256 267 276 293 289 324 355 16 15 21 24 27 31 43 53 55 57 59 58 66 76 111 153 156 200 221 224 231 244 252 278 280 261 110 124 105 46
240 232 235 235 231 236 235 261 257 264 263 250 255 267 274 289 282 284 338 19 7 23 15 21 33 40 47 59 61 68 73 75 78 86 90 98 106 119 149 137 114 103 100 104 105 102 110 61 37
238 238 236 234 228 232 235 255 263 254 256 255 252 265 273 288 293 280 302 17 355 8 16 17 31 36 40 57 64 66 67 70 83 90 93 93 94 96 95 94 95 97 96 97 84 75 67 17 8
242 237 238 237 229 231 230 240 261 255 246 251 250 256 263 279 287 289 262 282 335 350 12 10 23 32 33 47 50 51 56 68 72 73 78 85 92 93 91 87 88 86 92 93 88 72 36 20 14
244 239 240 233 233 227 233 237 235 269 257 244 247 253 252 262 276 287 271 258 280 305 349 357 13 19 27 34 45 51 49 51 58 66 73 75 77 85 86 89 96 96 96 94 62 41 20 15 10
239 243 242 236 239 229 227 230 234 243 269 254 244 244 246 247 256 272 263 250 254 276 315 333 355 4 15 26 31 36 44 54 56 56 60 69 75 76 74 75 72 75 63 55 38 21 11 356 345
240 240 243 240 238 235 229 230 236 226 241 261 255 249 248 247 254 248 226 244 253 265 265 304 328 340 354 3 7 26 41 51 57 56 55 53 53 58 58 55 42 25 15 2 348 346 336 327 329
237 238 238 243 237 239 234 235 235 228 234 232 255 260 242 246 252 247 244 252 247 247 268 267 293 309 316 344 352 11 15 19 35 48 46 45 35 30 34 29 20 9 351 334 321 315 329 317 310
232 235 240 240 238 239 236 234 237 235 237 232 245 246 240 236 243 232 237 244 254 245 262 257 262 287 290 309 330 335 344 359 18 35 30 27 25 20 8 352 340 335 322 322 325 315 313 311 323
240 231 238 240 236 238 237 235 231 230 231 230 225 236 232 229 250 233 240 242 244 249 254 253 259 257 265 284 302 311 316 326 344 355 4 3 10 8 350 310 306 324 325 323 316 318 322 320 316
238 238 235 237 237 237 236 235 235 240 239 237 237 235 226 227 237 249 246 246 250 251 253 247 259 263 264 269 280 285 287 292 304 310 332 334 328 332 332 312 304 315 311 312 302 299 302 303 300
236 237 236 236 235 237 235 235 235 239 238 236 234 239 232 225 233 244 249 247 245 248 254 248 256 258 261 263 268 279 275 266 282 288 292 308 309 314 317 313 320 312 306 299 299 302 304 308 311
241 236 236 237 233 236 237 234 233 239 239 229 233 238 239 234 233 242 241 250 241 248 251 254 250 252 254 254 261 265 276 275 274 279 285 294 301 310 307 312 306 306 303 298 300 300 301 304 309
240 239 236 236 234 232 235 236 230 235 237 237 235 239 240 238 235 242 235 239 239 244 243 247 249 245 251 256 256 260 267 264 268 272 272 279 286 296 298 299 299 300 299 292 293 296 298 298 306
242 239 237 235 235 232 233 236 234 234 234 235 240 239 240 239 243 239 233 237 233 231 228 240 244 250 249 249 257 262 264 263 267 269 269 270 282 292 291 294 294 295 294 299 297 297 297 297 298
246 240 239 237 235 233 232 231 235 237 231 235 239 241 243 241 241 245 237 240 231 234 238 246 251 260 251 250 256 259 263 263 266 267 267 269 280 285 290 288 288 291 293 297 296 293 298 297 298
246 243 239 236 235 233 230 225 233 237 232 233 236 240 243 244 245 245 243 239 237 237 240 246 250 251 253 245 255 250 262 268 270 271 268 270 274 280 286 287 285 289 292 295 301 298 295 294 297
249 246 241 236 234 233 230 223 229 233 235 232 234 237 238 241 243 243 240 233 240 246 242 246 247 250 253 265 262 268 273 269 270 270 274 276 280 284 283 280 283 284 289 292 297 298 300 297 296
249 245 242 238 234 231 229 222 223 230 233 234 232 235 239 240 242 244 244 239 243 243 246 246 247 247 250 257 264 266 270 270 273 270 268 278 285 284 280 282 285 288 290 293 296 297 298 297 302
245 243 239 236 236 231 227 221 219 227 230 234 234 231 236 240 242 244 247 243 237 243 245 245 246 247 249 254 262 267 263 265 269 275 279 283 283 280 279 283 285 286 288 292 295 298 297 297 298
242 241 236 235 233 230 226 221 217 223 226 230 235 235 233 241 243 245 245 243 241 245 249 250 249 250 249 253 261 263 259 267 273 275 277 275 280 281 281 281 283 285 288 288 296 298 298 298 299
237 237 231 230 231 230 225 219 216 221 224 228 234 234 234 236 243 248 248 246 242 244 248 251 252 248 247 258 264 263 263 267 269 270 274 273 276 279 278 280 280 284 288 287 291 297 297 300 298
234 231 229 227 229 230 226 219 216 220 222 224 230 233 233 235 238 244 247 248 247 247 250 252 256 253 256 258 257 258 259 262 266 268 271 273 276 279 276 277 278 281 284 287 290 295 299 301 298
231 228 226 226 227 231 224 221 211 220 219 222 227 231 234 236 237 239 243 246 248 247 248 253 253 252 254 255 254 256 257 264 266 268 270 271 273 274 273 276 281 281 283 284 289 292 297 300 298
229 228 226 226 226 228 225 222 206 220 219 221 225 229 233 237 239 239 242 245 248 249 251 254 252 253 258 260 257 256 260 263 264 267 267 270 272 276 274 275 278 281 284 284 288 292 294 299 296
228 227 226 227 229 229 226 221 208 215 222 219 224 226 230 233 237 239 241 244 246 250 252 254 256 256 257 259 260 260 262 263 263 268 266 268 272 275 274 274 277 281 283 286 287 291 292 299 295
227 227 223 224 227 229 228 220 209 211 221 221 222 226 230 231 234 237 239 242 245 247 250 253 254 256 258 258 260 261 259 262 264 266 271 271 272 271 273 276 278 280 283 284 288 291 294 297 294
227 226 222 224 223 228 228 222 208 211 219 222 224 226 228 230 232 235 238 241 242 245 247 250 250 251 252 257 260 259 260 263 268 269 271 269 269 270 273 274 278 281 282 285 288 290 294 294 293
226 226 225 225 226 227 229 225 217 212 216 221 222 228 230 232 232 234 237 240 241 243 245 248 249 250 252 253 255 259 261 265 267 269 266 266 269 271 273 276 277 278 280 283 289 289 291 290 292
225 225 225 225 227 228 228 223 222 213 215 220 223 224 230 232 232 232 234 236 239 242 244 245 247 249 251 254 256 258 261 263 266 268 269 270 270 272 273 274 276 278 282 286 286 285 287 288 291
Height
10871 10872 10875 10879 10883 10887 10889 10890 10889 10892 10894 10895 10897 10899 10900 10899 10901 10900 10898 10896 10894 10892 10888 10885 10881 10878 10874 10871 10867 10864 10861 10860 10859 10858 10857 10859 10861 10863 10865 10868 10870 10872 10874 10875 10876 10878 10879 10879 10878
10866 10868 10870 10875 10878 10881 10888 10888 10890 10891 10893 10894 10896 10897 10898 10899 10900 10899 10898 10896 10895 10893 10890 10888 10885 10883 10879 10875 10871 10868 10865 10863 10861 10860 10860 10861 10862 10863 10865 10868 10871 10872 10874 10876 10878 10879 10880 10880 10879
10858 10863 10866 10867 10871 10877 10884 10883 10887 10888 10890 10892 10893 10894 10896 10898 10898 10898 10898 10896 10895 10894 10892 10890 10887 10885 10883 10879 10877 10874 10870 10868 10865 10864 10865 10865 10866 10867 10868 10871 10873 10876 10877 10879 10879 10880 10881 10879 10877
10851 10855 10859 10862 10866 10872 10878 10879 10883 10884 10886 10889 10891 10892 10894 10896 10896 10897 10897 10896 10895 10895 10893 10891 10890 10888 10886 10883 10881 10878 10875 10873 10871 10869 10869 10869 10870 10871 10872 10874 10876 10878 10880 10880 10881 10880 10880 10879 10876
10843 10848 10854 10856 10860 10865 10871 10877 10876 10881 10882 10885 10887 10889 10892 10894 10894 10896 10896 10894 10894 10893 10893 10892 10890 10889 10888 10885 10883 10881 10879 10877 10875 10873 10873 10873 10874 10873 10875 10876 10878 10880 10881 10881 10880 10879 10878 10877 10874
10836 10841 10846 10849 10854 10859 10863 10869 10871 10875 10878 10880 10883 10885 10888 10890 10892 10892 10894 10893 10892 10892 10891 10892 10891 10889 10888 10887 10886 10884 10881 10880 10878 10877 10878 10877 10877 10877 10878 10879 10879 10880 10881 10881 10880 10878 10876 10874 10873
10828 10833 10838 10843 10846 10851 10855 10860 10866 10868 10870 10876 10877 10880 10884 10887 10888 10889 10890 10890 10890 10891 10890 10890 10890 10889 10888 10887 10886 10885 10884 10882 10881 10880 10880 10879 10879 10879 10879 10880 10881 10881 10880 10879 10877 10876 10874 10873 10871
10818 10825 10831 10833 10836 10842 10848 10852 10858 10864 10866 10868 10872 10874 10878 10880 10883 10886 10887 10888 10887 10887 10888 10889 10888 10888 10888 10886 10886 10885 10884 10883 10882 10881 10880 10879 10879 10879 10879 10879 10879 10879 10879 10878 10876 10875 10873 10870 10868
10807 10816 10822 10818 10827 10832 10839 10843 10850 10856 10860 10863 10866 10868 10871 10875 10877 10880 10882 10884 10885 10885 10885 10886 10886 10886 10886 10886 10885 10884 10883 10883 10882 10881 10880 10879 10879 10878 10878 10878 10878 10878 10877 10876 10874 10871 10870 10868 10865
10795 10804 10808 10806 10817 10822 10831 10836 10842 10847 10853 10856 10857 10860 10866 10870 10873 10875 10877 10880 10882 10882 10882 10882 10883 10883 10883 10883 10883 10883 10882 10882 10881 10880 10879 10879 10878 10878 10878 10877 10877 10876 10875 10873 10872 10869 10866 10864 10862
10782 10794 10789 10795 10805 10813 10820 10826 10833 10839 10844 10846 10853 10856 10859 10863 10866 10868 10872 10875 10877 10878 10879 10878 10879 10880 10880 10880 10880 10881 10881 10880 10880 10879 10878 10878 10877 10877 10876 10875 10875 10873 10871 10869 10867 10865 10863 10861 10858
10769 10775 10777 10783 10795 10802 10810 10816 10826 10829 10832 10839 10843 10848 10853 10857 10860 10863 10866 10869 10872 10873 10874 10875 10875 10876 10876 10876 10876 10876 10877 10877 10877 10876 10875 10874 10874 10873 10872 10871 10871 10870 10869 10866 10864 10861 10859 10856 10854
10751 10756 10764 10769 10783 10791 10799 10805 10814 10822 10822 10828 10835 10840 10847 10851 10854 10857 10859 10863 10865 10867 10869 10871 10871 10872 10872 10872 10872 10872 10872 10873 10873 10872 10872 10870 10869 10868 10867 10867 10867 10865 10864 10862 10859 10857 10854 10852 10849
10728 10743 10748 10754 10767 10777 10785 10789 10804 10804 10810 10820 10826 10831 10837 10843 10848 10851 10854 10856 10858 10860 10863 10865 10866 10866 10867 10868 10867 10868 10868 10868 10868 10868 10867 10867 10866 10865 10863 10862 10862 10861 10859 10857 10855 10853 10850 10846 10843
10712 10722 10731 10746 10750 10763 10770 10781 10793 10784 10798 10809 10814 10822 10827 10835 10841 10845 10848 10850 10852 10855 10856 10859 10860 10861 10862 10863 10863 10863 10864 10864 10863 10863 10862 10862 10861 10860 10859 10858 10857 10855 10853 10851 10849 10847 10844 10840 10837
10687 10704 10717 10728 10730 10746 10749 10776 10774 10771 10786 10795 10803 10809 10817 10825 10830 10838 10840 10844 10846 10847 10849 10850 10852 10855 10856 10857 10858 10858 10859 10859 10858 10858 10857 10857 10856 10855 10854 10853 10852 10850 10848 10846 10843 10840 10838 10833 10829
10670 10695 10698 10699 10711 10724 10735 10758 10754 10759 10771 10781 10789 10798 10806 10813 10822 10828 10831 10835 10838 10839 10841 10843 10845 10847 10850 10851 10852 10852 10853 10854 10853 10852 10851 10850 10849 10849 10848 10847 10845 10844 10841 10839 10836 10834 10831 10826 10821
10656 10662 10668 10686 10692 10702 10719 10738 10734 10742 10755 10767 10776 10786 10796 10802 10808 10810 10818 10825 10828 10830 10831 10833 10836 10840 10842 10843 10843 10844 10846 10847 10847 10846 10845 10844 10844 10844 10843 10840 10838 10837 10835 10832 10829 10827 10823 10818 10813
10616 10634 10652 10666 10663 10685 10701 10714 10720 10724 10745 10757 10764 10773 10783 10790 10793 10798 10809 10814 10817 10819 10820 10824 10828 10830 10833 10834 10834 10836 10837 10838 10836 10837 10837 10836 10836 10836 10835 10832 10830 10830 10828 10825 10822 10819 10815 10810 10806
10591 10609 10632 10634 10646 10664 10671 10692 10704 10709 10734 10744 10750 10760 10769 10776 10780 10788 10796 10800 10804 10806 10810 10814 10815 10821 10823 10825 10826 10828 10827 10827 10827 10827 10828 10829 10828 10827 10826 10825 10823 10820 10820 10817 10814 10811 10806 10803 10797
10571 10590 10608 10618 10617 10636 10647 10674 10688 10696 10715 10728 10739 10750 10758 10762 10765 10774 10782 10788 10793 10798 10799 10802 10806 10810 10813 10814 10817 10817 10817 10817 10818 10818 10820 10819 10818 10817 10816 10816 10814 10811 10810 10807 10805 10801 10798 10793 10788
10552 10571 10583 10588 10593 10612 10622 10664 10675 10684 10702 10723 10726 10738 10744 10747 10749 10757 10767 10776 10781 10784 10783 10791 10795 10798 10800 10802 10805 10804 10805 10807 10806 10809 10808 10808 10808 10807 10805 10806 10804 10802 10800 10797 10795 10792 10788 10783 10778
10544 10539 10559 10564 10574 10582 10602 10635 10676 10664 10689 10709 10713 10720 10727 10731 10735 10743 10750 10759 10765 10769 10774 10778 10780 10785 10787 10789 10790 10791 10793 10792 10795 10798 10796 10797 10797 10795 10794 10793 10792 10792 10789 10786 10784 10781 10777 10771 10767
10511 10517 10529 10540 10553 10550 10599 10612 10646 10652 10680 10684 10695 10702 10706 10712 10719 10728 10734 10742 10749 10752 10756 10759 10763 10767 10771 10775 10776 10779 10780 10780 10783 10784 10784 10784 10785 10783 10781 10780 10782 10781 10777 10776 10773 10770 10765 10761 10756
10488 10502 10513 10518 10525 10538 10575 10578 10647 10641 10656 10669 10676 10683 10688 10695 10704 10711 10717 10723 10730 10735 10740 10744 10749 10755 10758 10763 10765 10767 10767 10767 10769 10770 10772 10771 10772 10771 10769 10770 10768 10769 10766 10764 10762 10758 10754 10751 10747
10473 10488 10494 10503 10516 10539 10536 10558 10627 10631 10630 10650 10655 10661 10668 10676 10681 10693 10696 10705 10714 10717 10724 10728 10734 10738 10743 10749 10751 10751 10752 10754 10755 10756 10758 10757 10760 10759 10757 10758 10757 10756 10754 10751 10749 10746 10743 10740 10735
10453 10453 10483 10481 10495 10504 10519 10558 10593 10615 10614 10628 10635 10642 10649 10657 10662 10673 10680 10689 10696 10702 10708 10711 10716 10721 10728 10731 10733 10736 10737 10739 10738 10741 10743 10746 10747 10743 10745 10746 10745 10743 10741 10739 10737 10733 10730 10727 10722
10426 10447 10451 10455 10467 10474 10499 10533 10576 10591 10598 10611 10619 10624 10624 10634 10644 10653 10663 10670 10678 10684 10690 10696 10699 10702 10707 10713 10716 10718 10721 10723 10724 10727 10729 10729 10728 10729 10732 10732 10731 10729 10726 10725 10724 10719 10715 10712 10707
10411 10422 10430 10442 10446 10461 10492 10518 10560 10572 10581 10596 10602 10605 10612 10619 10627 10637 10645 10651 10657 10666 10672 10676 10682 10685 10689 10694 10697 10701 10704 10707 10709 10712 10712 10713 10714 10716 10718 10718 10718 10715 10713 10711 10709 10705 10700 10697 10693
10389 10402 10408 10412 10430 10447 10463 10496 10530 10553 10563 10573 10580 10587 10591 10599 10607 10613 10621 10629 10636 10644 10650 10656 10661 10667 10670 10674 10681 10684 10687 10691 10694 10696 10695 10697 10700 10701 10702 10703 10703 10700 10698 10697 10694 10690 10685 10683 10679